Location: BS-Broitzem
(52.2300°N, 10.4800°E)
Time: 06:31:36
(UTC+01:00)

ACS3 Solar Sail - Visible Passes

Search period start: 09 December 2025 00:00
Search period end: 19 December 2025 00:00
Orbit: 888 x 1002 km, 97.3° (Epoch: 08 December)

Date Brightness Start Highest point End Pass type
(mag) Time Alt. Az. Time Alt. Az. Time Alt. Az.
09 Dec 4.3 03:12:17 10° NNE 03:12:33 11° NNE 03:12:33 11° NNE visible
09 Dec 3.8 04:55:40 10° N 04:56:34 14° N 04:56:34 14° N visible
10 Dec 4.3 03:28:12 10° NNE 03:28:37 12° NNE 03:28:37 12° NNE visible
10 Dec 3.8 05:11:50 10° N 05:12:37 13° N 05:12:37 13° N visible
11 Dec 4.2 03:44:05 10° N 03:44:36 13° N 03:44:36 13° N visible
11 Dec 3.8 05:28:01 10° N 05:28:36 12° NNW 05:28:36 12° NNW visible
12 Dec 4.1 03:59:56 10° N 04:00:30 13° N 04:00:30 13° N visible
12 Dec 3.9 05:44:12 10° NNW 05:44:29 11° NNW 05:44:29 11° NNW visible
13 Dec 4.0 04:15:43 10° N 04:16:19 13° N 04:16:19 13° N visible
14 Dec 4.0 04:31:28 10° N 04:32:03 13° N 04:32:03 13° N visible
15 Dec 4.0 04:47:10 10° N 04:47:42 12° N 04:47:42 12° N visible
16 Dec 4.4 03:19:17 10° NNE 03:19:19 10° NNE 03:19:19 10° NNE visible
16 Dec 3.9 05:02:49 10° N 05:03:16 12° N 05:03:16 12° N visible
17 Dec 4.3 03:34:39 10° NNE 03:34:48 11° NNE 03:34:48 11° NNE visible
17 Dec 3.9 05:18:27 10° N 05:18:46 11° N 05:18:46 11° N visible
18 Dec 4.3 03:49:59 10° N 03:50:13 11° N 03:50:13 11° N visible
18 Dec 3.9 05:34:05 10° NNW 05:34:10 10° NNW 05:34:10 10° NNW visible
